(465402) 2008 HW1 (2008)

Japanese version
Home page
Updated on May 25, 2008

---------------------------------------------------------------------

* Profile

Discovery Date April 25, 2008
Magnitude 17.3 mag
Discoverer Lincoln Laboratory Near-Earth Asteroid Research project

* Orbital Elements

The following orbital elements are taken from MPEC 2008-K26:

Epoch 2008 May 14.0 TT = JDT 2454600.5                  MPC
M 351.89554              (2000.0)            P               Q
n   0.23733382     Peri.  248.86454     +0.93798779     -0.31598751
a   2.5836259      Node   129.26776     +0.34459773     +0.89475402
e   0.9605849      Incl.   10.61292     -0.03783255     +0.31554261
P   4.15           H   17.5           G   0.15           U   5
From 224 observations 2008 Mar. 30-May 12, mean residual 0".30.

* Finding Charts

* Magnitudes Graph

        H = 17.4  G = 0.15

---------------------------------------------------------------------

The orbital elements are published at the MPC Ephemerides and Orbital Elements.
The charts are made with StellaNavigator Ver.8 (AstroArts).
The magnitudes graphs are made with Comet for Windows.

---------------------------------------------------------------------

Copyright(C) Seiichi Yoshida (comet@aerith.net). All rights reserved.